CW8659 Weather Reports


Display with metric or nautical units.
time (UTC)temp
F
wind
direction
speed
MPH
gust
MPH
rain 1hr
in
rain 24hr
in
rain mn
in
humidity
%
barometer
mb
20260506172316 60 188 1.0 0.0 0.00 0.00 0.31 91 1006.5
20260506171819 60 217 1.0 0.0 0.00 0.00 0.30 91 1006.4
20260506171323 60 196 1.0 0.0 0.00 0.00 0.30 91 1006.4
20260506170831 60 218 0.0 0.0 0.00 0.00 0.30 91 1006.4
20260506170332 60 198 1.0 0.0 0.00 0.00 0.29 91 1006.3
20260506165839 60 193 1.0 0.0 0.00 0.00 0.29 91 1006.3
20260506165315 60 193 0.0 0.0 0.00 0.00 0.28 91 1006.4
20260506164820 60 194 1.0 0.0 0.00 0.00 0.27 91 1006.4
20260506164323 60 221 1.0 0.0 0.00 0.00 0.26 91 1006.4
20260506163824 60 209 2.0 0.0 0.00 0.00 0.26 91 1006.5
20260506163328 60 207 3.0 0.0 0.00 0.00 0.26 91 1006.5
20260506162834 60 195 2.0 0.0 0.00 0.00 0.26 91 1006.5
20260506162343 60 200 2.0 0.0 0.00 0.00 0.25 91 1006.6
20260506161814 60 173 2.0 0.0 0.00 0.00 0.24 91 1006.5
20260506161320 60 180 1.0 0.0 0.00 0.00 0.24 91 1006.5
20260506160825 60 223 1.0 0.0 0.00 0.00 0.23 91 1006.4
20260506160404 60 215 1.0 0.0 0.00 0.00 0.23 91 1006.5
20260506155820 60 192 1.0 0.0 0.00 0.00 0.23 91 1006.5
20260506155317 60 199 1.0 0.0 0.00 0.00 0.22 91 1006.6
20260506154824 60 199 1.0 0.0 0.00 0.00 0.21 91 1006.8
20260506154326 60 209 1.0 0.0 0.00 0.00 0.20 91 1006.7
20260506153836 60 238 1.0 0.0 0.00 0.00 0.19 91 1007.1
20260506153318 60 217 0.0 0.0 0.00 0.00 0.17 91 1007.4
20260506152821 60 210 1.0 0.0 0.00 0.00 0.17 91 1007.5
20260506152357 60 223 1.0 0.0 0.00 0.00 0.16 91 1007.4
20260506151839 60 199 0.0 0.0 0.00 0.00 0.15 91 1007.4
20260506151315 60 194 0.0 0.0 0.00 0.00 0.14 91 1007.2
20260506150838 60 223 0.0 0.0 0.00 0.00 0.14 91 1007.0
20260506150320 60 195 0.0 0.0 0.00 0.00 0.13 91 1006.8
20260506145828 60 192 0.0 0.0 0.00 0.00 0.12 91 1006.9
20260506145328 60 240 0.0 0.0 0.00 0.00 0.12 91 1007.0
20260506144830 60 200 0.0 0.0 0.00 0.00 0.12 91 1007.0
20260506144320 60 211 0.0 0.0 0.00 0.00 0.11 91 1007.1
20260506143826 60 214 0.0 0.0 0.00 0.00 0.11 91 1007.1
20260506143332 60 203 0.0 0.0 0.00 0.00 0.10 91 1007.2
20260506142843 60 206 1.0 0.0 0.00 0.00 0.10 90 1007.3
20260506142319 60 188 1.0 0.0 0.00 0.00 0.09 90 1007.4
20260506141823 60 206 1.0 0.0 0.00 0.00 0.08 90 1007.4
20260506141324 60 218 0.0 0.0 0.00 0.00 0.07 90 1007.6
20260506140829 60 188 0.0 0.0 0.00 0.00 0.06 89 1007.5
20260506140338 60 204 0.0 0.0 0.00 0.00 0.06 89 1007.5
20260506135826 60 200 0.0 0.0 0.00 0.00 0.05 89 1007.6
20260506135328 60 182 0.0 0.0 0.00 0.00 0.05 89 1007.6
20260506134839 60 180 0.0 0.0 0.00 0.00 0.04 89 1007.6
20260506134339 60 219 0.0 0.0 0.00 0.00 0.03 88 1007.6
20260506133826 61 204 0.0 0.0 0.00 0.00 0.03 88 1007.6
20260506133323 61 195 0.0 0.0 0.00 0.00 0.03 88 1007.6
20260506132829 61 195 0.0 0.0 0.00 0.00 0.02 87 1007.6
20260506132319 61 192 0.0 0.0 0.00 0.00 0.02 87 1007.7
20260506131845 61 207 0.0 0.0 0.00 0.00 0.01 86 1007.7
20260506131328 61 245 0.0 0.0 0.00 0.00 0.01 86 1007.9
20260506130817 61 200 0.0 0.0 0.00 0.00 0.01 86 1007.9
20260506130315 62 252 0.0 0.0 0.00 0.00 0.01 85 1007.8
20260506125818 62 200 1.0 0.0 0.00 0.00 0.00 84 1007.9
20260506125316 62 230 2.0 0.0 0.00 0.00 0.00 83 1007.8
20260506124824 62 187 2.0 0.0 0.00 0.00 0.00 83 1007.7
20260506124333 62 209 1.0 0.0 0.00 0.00 0.00 82 1007.6
20260506123936 62 207 2.0 0.0 0.00 0.00 0.00 82 1007.6
20260506123326 62 229 3.0 0.0 0.00 0.00 0.00 83 1007.7
20260506122828 62 225 2.0 0.0 0.00 0.00 0.00 83 1007.6
20260506122335 62 191 1.0 0.0 0.00 0.00 0.00 84 1007.5
20260506121838 62 179 2.0 0.0 0.00 0.00 0.00 84 1007.5
20260506121313 62 188 2.0 0.0 0.00 0.00 0.00 83 1007.4
20260506120819 62 211 2.0 0.0 0.00 0.00 0.00 82 1007.5
20260506120331 62 221 2.0 0.0 0.00 0.00 0.00 81 1007.6
20260506115834 63 209 1.0 0.0 0.00 0.00 0.00 80 1007.6
20260506115340 63 209 0.0 0.0 0.00 0.00 0.00 79 1007.6
20260506114842 63 206 0.0 0.0 0.00 0.00 0.00 79 1007.6
20260506114326 62 206 0.0 0.0 0.00 0.00 0.00 80 1007.6
20260506113833 61 221 0.0 0.0 0.00 0.00 0.00 81 1007.7
20260506113325 60 205 0.0 0.0 0.00 0.00 0.00 84 1007.7
20260506112856 57 215 0.0 0.0 0.00 0.00 0.00 86 1007.6
20260506112336 57 198 0.0 0.0 0.00 0.00 0.00 86 1007.7
20260506111820 56 211 0.0 0.0 0.00 0.00 0.00 85 1007.7
20260506111351 56 202 0.0 0.0 0.00 0.00 0.00 85 1007.6
20260506110836 56 202 0.0 0.0 0.00 0.00 0.00 87 1007.7
20260506110324 55 200 0.0 0.0 0.00 0.00 0.00 86 1007.7
20260506105832 55 202 0.0 0.0 0.00 0.00 0.00 85 1007.7
20260506105338 55 202 0.0 0.0 0.00 0.00 0.00 85 1007.3
20260506104821 55 200 0.0 0.0 0.00 0.00 0.00 84 1007.3
20260506104327 55 202 0.0 0.0 0.00 0.00 0.00 85 1007.2
20260506103838 54 202 0.0 0.0 0.00 0.00 0.00 85 1007.2
20260506103330 54 202 0.0 0.0 0.00 0.00 0.00 84 1007.2
20260506102818 54 202 0.0 0.0 0.00 0.00 0.00 84 1007.2
20260506102327 55 202 0.0 0.0 0.00 0.00 0.00 84 1007.2
20260506101834 55 202 0.0 0.0 0.00 0.00 0.00 84 1007.1
20260506101332 55 202 0.0 0.0 0.00 0.00 0.00 84 1007.3
20260506100819 55 201 0.0 0.0 0.00 0.00 0.00 84 1007.1
20260506100322 55 202 0.0 0.0 0.00 0.00 0.00 83 1007.1
20260506095831 55 200 0.0 0.0 0.00 0.00 0.00 84 1007.2
20260506095333 55 202 0.0 0.0 0.00 0.00 0.00 83 1007.5
20260506094836 55 202 0.0 0.0 0.00 0.00 0.00 83 1007.4
20260506094403 55 200 0.0 0.0 0.00 0.00 0.00 84 1007.2
20260506093846 55 201 0.0 0.0 0.00 0.00 0.00 83 1007.3
20260506093323 55 202 0.0 0.0 0.00 0.00 0.00 83 1007.1
20260506092830 55 202 0.0 0.0 0.00 0.00 0.00 83 1007.2
20260506092356 55 202 0.0 0.0 0.00 0.00 0.00 83 1007.3
20260506091821 55 201 0.0 0.0 0.00 0.00 0.00 83 1007.2
20260506091330 54 202 0.0 0.0 0.00 0.00 0.00 83 1007.2
20260506090835 54 202 0.0 0.0 0.00 0.00 0.00 83 1007.2
20260506090340 55 202 0.0 0.0 0.00 0.00 0.00 83 1007.1
20260506085816 54 202 0.0 0.0 0.00 0.00 0.00 82 1007.4
20260506085344 54 202 0.0 0.0 0.00 0.00 0.00 83 1007.3
20260506084829 54 202 0.0 0.0 0.00 0.00 0.00 82 1007.5
20260506084338 55 202 0.0 0.0 0.00 0.00 0.00 82 1007.4
20260506083819 54 200 0.0 0.0 0.00 0.00 0.00 83 1007.5
20260506083328 54 202 0.0 0.0 0.00 0.00 0.00 82 1007.6
20260506082834 54 202 0.0 0.0 0.00 0.00 0.00 82 1007.5
20260506082344 54 202 0.0 0.0 0.00 0.00 0.00 82 1007.4
20260506081835 54 200 0.0 0.0 0.00 0.00 0.00 82 1007.6
20260506081337 54 202 0.0 0.0 0.00 0.00 0.00 82 1007.5
20260506080838 54 202 0.0 0.0 0.00 0.00 0.00 82 1007.5
20260506080320 54 202 0.0 0.0 0.00 0.00 0.00 82 1007.4
20260506073320 55 202 0.0 0.0 0.00 0.00 0.00 82 1007.7
20260506072847 55 201 0.0 0.0 0.00 0.00 0.00 81 1007.8
20260506072331 55 201 0.0 0.0 0.00 0.00 0.00 81 1007.7
20260506071831 55 201 0.0 0.0 0.00 0.00 0.00 80 1007.8
20260506071336 55 202 0.0 0.0 0.00 0.00 0.00 80 1007.8
20260506070818 55 201 0.0 0.0 0.00 0.00 0.00 80 1007.9
20260506070324 56 200 0.0 0.0 0.00 0.00 0.00 81 1007.7
20260506062333 56 202 0.0 0.0 0.00 0.00 0.00 80 1008.2
20260506061842 56 202 0.0 0.0 0.00 0.00 0.00 80 1008.3
20260506061318 56 202 0.0 0.0 0.00 0.00 0.00 80 1008.3
20260506060845 56 202 0.0 0.0 0.00 0.00 0.00 79 1008.4
20260506060327 56 202 0.0 0.0 0.00 0.00 0.00 79 1008.5
20260506051340 56 202 0.0 0.0 0.00 0.00 0.00 79 1008.6
20260506050850 56 200 0.0 0.0 0.00 0.00 0.00 78 1008.7
20260506050338 56 202 0.0 0.0 0.00 0.00 0.00 77 1008.7
20260506044819 56 201 0.0 0.0 0.00 0.00 0.00 76 1008.8
20260506044324 57 202 0.0 0.0 0.00 0.00 0.00 76 1008.8
20260506043848 57 202 0.0 0.0 0.00 0.00 0.00 75 1008.8
20260506043333 57 202 0.0 0.0 0.00 0.00 0.00 74 1008.8
20260506042839 57 202 0.0 0.0 0.00 0.00 0.00 74 1008.8
20260506042324 58 202 0.0 0.0 0.00 0.00 0.00 73 1008.8
20260506041826 58 202 0.0 0.0 0.00 0.00 0.00 72 1008.8
20260506041331 59 201 0.0 0.0 0.00 0.00 0.00 71 1008.8
20260506040839 59 200 0.0 0.0 0.00 0.00 0.00 70 1008.9
20260506040334 60 201 0.0 0.0 0.00 0.00 0.00 68 1008.9
20260506035838 61 201 0.0 0.0 0.00 0.00 0.00 67 1008.8
20260506035326 61 202 0.0 0.0 0.00 0.00 0.00 65 1008.8
20260506034902 61 201 0.0 0.0 0.00 0.00 0.00 64 1008.8
20260506034402 62 200 0.0 0.0 0.00 0.00 0.00 63 1008.8
20260506033843 62 200 0.0 0.0 0.00 0.00 0.00 63 1008.8
20260506033356 62 200 0.0 0.0 0.00 0.00 0.00 62 1008.8
20260506032900 63 200 0.0 0.0 0.00 0.00 0.00 61 1008.7
20260506032345 63 201 0.0 0.0 0.00 0.00 0.00 60 1008.8
20260506031818 64 201 0.0 0.0 0.00 0.00 0.00 59 1008.7
20260506031354 65 201 0.0 0.0 0.00 0.00 0.00 57 1008.7
20260506030833 65 201 0.0 0.0 0.00 0.00 0.00 56 1008.7
20260506030321 66 200 0.0 0.0 0.00 0.00 0.00 55 1008.7
20260506025332 67 201 0.0 0.0 0.00 0.00 0.00 53 1008.7
20260506024816 68 200 0.0 0.0 0.00 0.00 0.00 51 1008.7
20260506024326 69 201 0.0 0.0 0.00 0.00 0.00 49 1008.6
20260506023845 70 201 0.0 0.0 0.00 0.00 0.00 48 1008.7
20260506023331 70 223 0.0 0.0 0.00 0.00 0.00 47 1008.8
20260506022833 70 191 0.0 0.0 0.00 0.00 0.00 47 1008.7
20260506022338 70 229 0.0 0.0 0.00 0.00 0.00 46 1008.7
20260506021833 70 236 0.0 0.0 0.00 0.00 0.00 47 1008.7
20260506021320 71 207 0.0 0.0 0.00 0.00 0.00 46 1008.7
20260506020829 71 241 1.0 0.0 0.00 0.00 0.00 46 1008.7
20260506020356 71 198 2.0 0.0 0.00 0.00 0.00 45 1008.8
20260506015823 71 246 3.0 0.0 0.00 0.00 0.00 45 1008.7
20260506015331 71 221 2.0 0.0 0.00 0.00 0.00 45 1008.6
20260506014837 71 228 1.0 0.0 0.00 0.00 0.00 45 1008.6
20260506014343 72 200 0.0 0.0 0.00 0.00 0.00 44 1008.4
20260506013821 72 214 0.0 0.0 0.00 0.00 0.00 45 1008.4
20260506013325 72 198 0.0 0.0 0.00 0.00 0.00 45 1008.3
20260506012824 72 207 0.0 0.0 0.00 0.00 0.00 44 1008.3
20260506012327 72 205 0.0 0.0 0.00 0.00 0.00 44 1008.2
20260506011828 73 217 1.0 0.0 0.00 0.00 0.00 44 1008.2
20260506011335 73 244 3.0 0.0 0.00 0.00 0.00 43 1008.2
20260506010857 72 198 3.0 0.0 0.00 0.00 0.00 44 1008.0
20260506010343 72 208 2.0 0.0 0.00 0.00 0.00 44 1008.0
20260506005843 72 225 1.0 0.0 0.00 0.00 0.00 45 1008.0
20260506005320 71 195 1.0 0.0 0.00 0.00 0.00 46 1007.9
20260506004821 71 214 2.0 0.0 0.00 0.00 0.00 45 1007.9
20260506004333 72 198 2.0 0.0 0.00 0.00 0.00 45 1007.9
20260506003821 72 186 2.0 0.0 0.00 0.00 0.00 44 1007.9
20260506003324 73 186 3.0 0.0 0.00 0.00 0.00 44 1007.9
20260506002832 73 195 3.0 0.0 0.00 0.00 0.00 42 1007.8
20260506002334 73 205 4.0 0.0 0.00 0.00 0.00 41 1007.8
20260506001831 74 232 4.0 0.0 0.00 0.00 0.00 41 1007.7
20260506001320 74 165 4.0 0.0 0.00 0.00 0.00 40 1007.6
20260506000846 75 179 3.0 0.0 0.00 0.00 0.00 40 1007.5
20260506000403 75 200 2.0 0.0 0.00 0.00 0.00 40 1007.6
20260505235820 75 206 2.0 0.0 0.00 0.00 0.00 40 1007.5
20260505235328 75 222 1.0 0.0 0.00 0.00 0.00 39 1007.6
20260505234833 75 192 1.0 0.0 0.00 0.00 0.00 40 1007.5
20260505234341 75 213 3.0 0.0 0.00 0.00 0.00 41 1007.5
20260505233817 75 201 3.0 0.0 0.00 0.00 0.00 40 1007.4
20260505233320 75 186 2.0 0.0 0.00 0.00 0.00 40 1007.5
20260505232857 75 196 1.0 0.0 0.00 0.00 0.00 40 1007.4
20260505232328 75 237 0.0 0.0 0.00 0.00 0.00 40 1007.3
20260505231816 75 223 0.0 0.0 0.00 0.00 0.00 40 1007.3
20260505231332 75 186 0.0 0.0 0.00 0.00 0.00 39 1007.3
20260505230820 76 205 1.0 0.0 0.00 0.00 0.00 39 1007.3
20260505230322 76 197 1.0 0.0 0.00 0.00 0.00 39 1007.2
20260505225822 75 205 2.0 0.0 0.00 0.00 0.00 40 1007.3
20260505225354 75 209 3.0 0.0 0.00 0.00 0.00 40 1007.2
20260505224841 75 223 2.0 0.0 0.00 0.00 0.00 39 1007.0
20260505224344 76 232 1.0 0.0 0.00 0.00 0.00 38 1007.0
20260505223823 76 184 1.0 0.0 0.00 0.00 0.00 39 1007.0
20260505223356 76 229 2.0 0.0 0.00 0.00 0.00 39 1007.1
20260505222844 76 226 2.0 0.0 0.00 0.00 0.00 38 1007.0
20260505222325 76 233 2.0 0.0 0.00 0.00 0.00 38 1007.0
20260505221820 76 225 2.0 0.0 0.00 0.00 0.00 38 1007.0
20260505221356 76 219 4.0 0.0 0.00 0.00 0.00 38 1007.0
20260505220845 77 194 5.0 0.0 0.00 0.00 0.00 37 1006.9
20260505220321 76 194 3.0 0.0 0.00 0.00 0.00 38 1007.0
20260505215826 77 187 2.0 0.0 0.00 0.00 0.00 38 1006.9
20260505215328 77 217 3.0 0.0 0.00 0.00 0.00 37 1006.8
20260505214831 77 200 4.0 0.0 0.00 0.00 0.00 38 1006.9
20260505214321 77 199 4.0 0.0 0.00 0.00 0.00 37 1006.8
20260505213827 77 209 2.0 0.0 0.00 0.00 0.00 38 1006.8
20260505213329 77 197 1.0 0.0 0.00 0.00 0.00 38 1006.8
20260505212826 77 183 4.0 0.0 0.00 0.00 0.00 38 1006.8
20260505212331 77 221 8.0 0.0 0.00 0.00 0.00 37 1006.7
20260505211817 78 150 8.0 0.0 0.00 0.00 0.00 38 1006.8
20260505211320 78 153 5.0 0.0 0.00 0.00 0.00 38 1006.6
20260505210817 78 219 5.0 0.0 0.00 0.00 0.00 37 1006.5
20260505210326 79 218 4.0 0.0 0.00 0.00 0.00 37 1006.7
20260505205826 79 235 3.0 0.0 0.00 0.00 0.00 40 1006.6
20260505205331 78 233 3.0 0.0 0.00 0.00 0.00 36 1006.5
20260505204834 79 203 3.0 0.0 0.00 0.00 0.00 37 1006.5
20260505204341 79 200 6.0 0.0 0.00 0.00 0.00 39 1006.5
20260505203825 79 199 7.0 0.0 0.00 0.00 0.00 38 1006.5
20260505203330 79 215 6.0 0.0 0.00 0.00 0.00 36 1006.5
20260505202818 80 212 5.0 0.0 0.00 0.00 0.00 33 1006.6
20260505202357 80 194 5.0 0.0 0.00 0.00 0.00 32 1006.5
20260505201833 81 207 5.0 0.0 0.00 0.00 0.00 32 1006.6
20260505201325 79 190 5.0 0.0 0.00 0.00 0.00 34 1006.4
20260505200851 79 198 5.0 0.0 0.00 0.00 0.00 31 1006.5
20260505200337 80 205 4.0 0.0 0.00 0.00 0.00 31 1006.6
20260505195823 81 261 5.0 0.0 0.00 0.00 0.00 33 1006.5
20260505195324 80 195 8.0 0.0 0.00 0.00 0.00 32 1006.8
20260505194828 80 170 7.0 0.0 0.00 0.00 0.00 32 1006.7
20260505194334 81 222 4.0 0.0 0.00 0.00 0.00 33 1006.8
20260505193840 80 230 4.0 0.0 0.00 0.00 0.00 37 1006.9
20260505193316 80 209 4.0 0.0 0.00 0.00 0.00 35 1006.9
20260505192823 81 210 3.0 0.0 0.00 0.00 0.00 33 1006.9
20260505192332 80 267 6.0 0.0 0.00 0.00 0.00 31 1007.0
20260505191824 80 223 8.0 0.0 0.00 0.00 0.00 32 1007.3
20260505191351 80 158 7.0 0.0 0.00 0.00 0.00 31 1007.3
20260505190815 80 223 8.0 0.0 0.00 0.00 0.00 32 1007.3
20260505190316 79 184 8.0 0.0 0.00 0.00 0.00 32 1007.4
20260505185818 80 200 7.0 0.0 0.00 0.00 0.00 31 1007.6
20260505185324 80 200 7.0 0.0 0.00 0.00 0.00 34 1007.4
20260505184826 79 238 8.0 0.0 0.00 0.00 0.00 32 1007.5
20260505184338 80 217 7.0 0.0 0.00 0.00 0.00 32 1007.7
20260505183815 80 227 6.0 0.0 0.00 0.00 0.00 33 1007.7
20260505183327 80 264 6.0 0.0 0.00 0.00 0.00 33 1007.8
20260505182839 80 202 6.0 0.0 0.00 0.00 0.00 33 1007.7
20260505182324 80 228 5.0 0.0 0.00 0.00 0.00 37 1007.7
20260505181830 80 234 5.0 0.0 0.00 0.00 0.00 36 1007.6
20260505181315 79 207 5.0 0.0 0.00 0.00 0.00 39 1007.8
20260505180815 78 200 3.0 0.0 0.00 0.00 0.00 40 1007.9
20260505180316 79 223 5.0 0.0 0.00 0.00 0.00 39 1008.0
20260505175821 79 229 7.0 0.0 0.00 0.00 0.00 37 1008.0
20260505175346 79 215 8.0 0.0 0.00 0.00 0.00 38 1008.1
20260505174857 78 261 5.0 0.0 0.00 0.00 0.00 38 1008.1
20260505174341 79 170 5.0 0.0 0.00 0.00 0.00 41 1008.1
20260505173818 78 184 7.0 0.0 0.00 0.00 0.00 41 1008.2
20260505173320 78 192 7.0 0.0 0.00 0.00 0.00 41 1008.3
20260505172828 78 196 5.0 0.0 0.00 0.00 0.00 38 1008.3